sat.trackr.live / text

‹ back to catalog

STARLINK-36478

NORAD 67351 · 2026-003T

PAYLOAD ACTIVE UNKNOWN

§ Identity

Operator
Country
US
Launch date
2026-01-09
Launch site
AFETR
Launch vehicle
Mass (kg)
RCS (m²)

Purposes: comms

External: N2YO · Heavens-Above · Gunter

§ Orbital elements

Epoch: 2026-09-19T22:14:02.449536Z

Period
94.27 min
Inclination
43.0006°
Eccentricity
0.0001601
Mean motion
15.27580584 rev/d
Perigee alt
481.9 km
Apogee alt
484.1 km
Semi-major
6,861.2 km
B*
4.4104e-4
RAAN
209.7945°
Arg perigee
263.8376°
Mean anomaly
96.2293°
Rev number
3,853

§ Raw data

STARLINK-364781 67351U 26003T   26262.92641724  .00011894  00000+0  44104-3 0  99942 67351  43.0006 209.7945 0001601 263.8376  96.2293 15.27580584 38531

JSON: /api/v1/satellites/67351 · /tle

For live sub-satellite position, see the globe view (requires WebGL).

§ Visibility from observer

Set your observer location to see the next 7 days of passes ≥ 10°. The values pass through the URL so the page stays shareable.

No JS? Fill the form by hand. The geolocation button needs JavaScript.